Location: ????
(30.2663°N, 31.2484°E)
Time: 03:23:56
(UTC+00:00)

Cosmos 2016 Rocket - Pass Details

Date: 27 September 2022
Orbit: 946 x 1001 km, 83.0° (Epoch: 01 December)

Event Time Altitude Azimuth Distance (km) Brightness Sun altitude
Rises 02:35:22 0° 179° (S) 3,675 7.0 -16.0°
Reaches altitude 10° 02:37:52 10° 177° (S) 2,737 6.3 -15.5°
Maximum altitude 02:44:08 75° 93° (E) 1,031 4.3 -14.2°
Drops below altitude 10° 02:50:29 10° 10° (N) 2,773 6.6 -12.8°
Sets 02:53:02 0° 8° (N) 3,727 7.2 -12.3°
